Powrót do katalogu

STARLINK-32729

AktywnyŁącznośćVLEO
NORAD 62497·PAYLOAD·🇺🇸 United States

Wystrzelony Jan 6, 2025 z Cape Canaveral Space Force Station

Loading…

Następne Przeloty (najbliższe 24 godziny)

TLE

ŚwieżeSource: CelesTrak SupGP

Epoka: Sep 15, 2026, 03:42 UTC

1 62497C 25003L   26258.15465278  .00010704  00000+0  38760-3 0  2585
2 62497  43.0028 298.7482 0001569 268.2403 332.7314 15.27582500    12

Śledź STARLINK-32729 w czasie rzeczywistym z AllMySat

Download on the App Store